This is the latest recevied weather packets stored in our database for station/object N5JXS. If no packets are shown the sender has not sent any weather packets the latest 10 day(s).
| Time | Temp. | Humidity | Pressure | Rain* | Wind** | Luminosity | Snow |
|---|---|---|---|---|---|---|---|
| 1777576102 | 0.56° C | 97% | 1022.7 hPa | 3.05 mm | - | 59 W/m² | - |
| 1777575797 | 0.56° C | 97% | 1022.7 hPa | 1.27 mm | - | 68 W/m² | - |
| 1777575494 | 0.56° C | 97% | 1022.5 hPa | 1.78 mm | - | 65 W/m² | - |
| 1777575190 | 0.56° C | 97% | 1022.9 hPa | 3.05 mm | - | 65 W/m² | - |
| 1777574886 | 0.56° C | 97% | 1022.6 hPa | 1.27 mm | - | 72 W/m² | - |
| 1777574583 | 0.56° C | 97% | 1022.7 hPa | 1.78 mm | - | 69 W/m² | - |
| 1777574279 | 0.56° C | 97% | 1023.1 hPa | 1.78 mm | - | 50 W/m² | - |
| 1777573974 | 0.56° C | 97% | 1022.7 hPa | 0 mm | - | 47 W/m² | - |
| 1777573669 | 0.56° C | 97% | 1022.9 hPa | 0 mm | - | 53 W/m² | - |
| 1777573366 | 0.56° C | 97% | 1022.7 hPa | 0 mm | - | 75 W/m² | - |
| 1777573061 | 0.56° C | 97% | 1022.9 hPa | 0 mm | - | 79 W/m² | - |
| 1777572759 | 0.56° C | 97% | 1023.2 hPa | 0 mm | - | 99 W/m² | - |
| 1777572453 | 0.56° C | 97% | 1022.7 hPa | 0 mm | - | 101 W/m² | - |
| 1777572150 | 0.56° C | 97% | 1022.9 hPa | 0 mm | - | 100 W/m² | - |
| 1777571845 | 0.56° C | 97% | 1023.4 hPa | 0 mm | - | 107 W/m² | - |
| 1777571541 | 0.56° C | 98% | 1022.9 hPa | 0 mm | - | 130 W/m² | - |
| 1777571238 | 0.56° C | 98% | 1023 hPa | 0 mm | - | 101 W/m² | - |
| 1777570934 | 0.56° C | 98% | 1023.1 hPa | 0 mm | - | 92 W/m² | - |
| 1777570630 | 0.56° C | 98% | 1023.2 hPa | 0 mm | - | 69 W/m² | - |
| 1777570327 | 0° C | 97% | 1023.4 hPa | 0 mm | - | 74 W/m² | - |
| 1777570022 | 0° C | 98% | 1023.1 hPa | 0 mm | - | 80 W/m² | - |
| 1777569718 | 0° C | 98% | 1023.2 hPa | 0 mm | - | 49 W/m² | - |
| 1777569414 | 0° C | 98% | 1022.9 hPa | 0 mm | - | 81 W/m² | - |
| 1777569111 | 0° C | 98% | 1023.1 hPa | 0 mm | - | 74 W/m² | - |
| 1777568808 | 0° C | 98% | 1023 hPa | 0 mm | - | 69 W/m² | - |
* Rain latest hour (hover to see other rain measurements)
** Current wind speed in m/s (hover to see current wind gust speed)